Time,TemperatureF,DewpointF,PressureIn,WindDirection,WindDirectionDegrees,WindSpeedMPH,WindSpeedGustMPH,Humidity,HourlyPrecipIn,Conditions,Clouds,dailyrainin,SoftwareType,DateUTC
2013-09-26 00:01:00,66.0,63.9,29.69,East,86,0.0,0.0,93,0.00,,,0.01,Wunderground v.1.15,2013-09-26 04:01:00,
2013-09-26 00:02:00,66.0,63.9,29.69,North,9,0.0,0.0,93,0.00,,,0.01,Wunderground v.1.15,2013-09-26 04:02:00,
2013-09-26 00:04:00,66.0,63.9,29.69,North,9,0.0,0.0,93,0.00,,,0.01,Wunderground v.1.15,2013-09-26 04:04:00,
2013-09-26 00:06:00,66.0,63.9,29.69,North,9,0.0,0.0,93,0.00,,,0.01,Wunderground v.1.15,2013-09-26 04:06:00,
2013-09-26 00:10:00,66.0,63.9,29.69,North,9,0.0,0.0,93,0.00,,,0.01,Wunderground v.1.15,2013-09-26 04:10:00,
2013-09-26 00:16:00,66.0,64.2,29.69,NNE,12,0.0,0.0,94,0.00,,,0.01,Wunderground v.1.15,2013-09-26 04:16:00,
2013-09-26 00:21:00,65.8,64.0,29.68,ENE,74,0.0,1.0,94,0.00,,,0.00,Wunderground v.1.15,2013-09-26 04:21:00,
2013-09-26 00:26:00,65.8,64.0,29.68,ENE,74,0.0,0.0,94,0.00,,,0.00,Wunderground v.1.15,2013-09-26 04:26:00,
2013-09-26 00:32:00,65.6,63.8,29.69,ENE,58,0.0,1.0,94,0.00,,,0.00,Wunderground v.1.15,2013-09-26 04:32:00,
2013-09-26 00:37:00,65.6,63.8,29.69,ENE,57,0.0,0.0,94,0.00,,,0.00,Wunderground v.1.15,2013-09-26 04:37:00,
2013-09-26 00:43:00,65.6,64.1,29.69,ENE,57,0.0,0.0,95,0.00,,,0.00,Wunderground v.1.15,2013-09-26 04:43:00,
2013-09-26 00:49:00,65.5,64.0,29.69,NW,325,0.0,2.0,95,0.00,,,0.00,Wunderground v.1.15,2013-09-26 04:49:00,
2013-09-26 00:54:00,65.5,64.0,29.69,NW,325,0.0,0.0,95,0.00,,,0.00,Wunderground v.1.15,2013-09-26 04:54:00,
2013-09-26 00:59:00,65.5,64.0,29.69,North,360,0.0,2.0,95,0.00,,,0.00,Wunderground v.1.15,2013-09-26 04:59:00,
2013-09-26 01:04:00,65.5,64.0,29.68,NNW,331,0.0,0.0,95,0.00,,,0.00,Wunderground v.1.15,2013-09-26 05:04:00,
2013-09-26 01:09:00,65.5,64.0,29.68,NNW,331,0.0,0.0,95,0.00,,,0.00,Wunderground v.1.15,2013-09-26 05:09:00,
2013-09-26 01:14:00,65.3,63.8,29.68,NNW,334,0.0,0.0,95,0.00,,,0.01,Wunderground v.1.15,2013-09-26 05:14:00,
2013-09-26 01:20:00,65.3,63.8,29.68,NE,40,0.0,0.0,95,0.00,,,0.01,Wunderground v.1.15,2013-09-26 05:20:00,
2013-09-26 01:26:00,65.3,63.8,29.68,NE,40,0.0,0.0,95,0.00,,,0.01,Wunderground v.1.15,2013-09-26 05:26:00,
2013-09-26 01:32:00,65.3,63.8,29.67,NE,40,0.0,0.0,95,0.00,,,0.02,Wunderground v.1.15,2013-09-26 05:32:00,
2013-09-26 01:37:00,65.3,63.8,29.67,NE,47,0.0,1.0,95,0.00,,,0.02,Wunderground v.1.15,2013-09-26 05:37:00,
2013-09-26 01:42:00,65.3,63.8,29.67,ENE,63,0.0,1.0,95,0.07,,,0.03,Wunderground v.1.15,2013-09-26 05:42:00,
2013-09-26 01:47:00,65.2,63.7,29.68,ENE,65,0.0,0.0,95,0.14,,,0.04,Wunderground v.1.15,2013-09-26 05:47:00,
2013-09-26 01:52:00,65.2,63.7,29.68,ENE,65,0.0,0.0,95,0.16,,,0.06,Wunderground v.1.15,2013-09-26 05:52:00,
2013-09-26 01:58:00,65.2,64.0,29.68,North,355,0.0,1.0,96,0.13,,,0.07,Wunderground v.1.15,2013-09-26 05:58:00,
2013-09-26 02:04:00,65.0,63.8,29.67,ENE,74,0.0,4.0,96,0.13,,,0.09,Wunderground v.1.15,2013-09-26 06:04:00,
2013-09-26 02:09:00,65.0,63.8,29.67,NE,40,0.0,4.0,96,0.11,,,0.10,Wunderground v.1.15,2013-09-26 06:09:00,
2013-09-26 02:15:00,65.0,63.8,29.67,NE,49,0.0,3.0,96,0.14,,,0.11,Wunderground v.1.15,2013-09-26 06:15:00,
2013-09-26 02:21:00,64.8,63.6,29.68,ENE,61,0.0,3.0,96,0.17,,,0.13,Wunderground v.1.15,2013-09-26 06:21:00,
2013-09-26 02:26:00,64.8,63.6,29.68,NE,40,0.0,0.0,96,0.11,,,0.14,Wunderground v.1.15,2013-09-26 06:26:00,
2013-09-26 02:32:00,64.8,63.6,29.67,NNE,15,1.0,4.0,96,0.07,,,0.14,Wunderground v.1.15,2013-09-26 06:32:00,
2013-09-26 02:37:00,64.7,63.5,29.67,ENE,63,1.0,2.0,96,0.04,,,0.14,Wunderground v.1.15,2013-09-26 06:37:00,
2013-09-26 02:42:00,64.7,63.5,29.67,East,100,1.0,2.0,96,0.04,,,0.15,Wunderground v.1.15,2013-09-26 06:42:00,
2013-09-26 02:48:00,64.7,63.5,29.67,NE,41,0.0,2.0,96,0.04,,,0.15,Wunderground v.1.15,2013-09-26 06:48:00,
2013-09-26 02:54:00,64.7,63.5,29.67,North,360,0.0,0.0,96,0.05,,,0.16,Wunderground v.1.15,2013-09-26 06:54:00,
2013-09-26 02:59:00,64.5,63.3,29.67,North,11,0.0,0.0,96,0.12,,,0.17,Wunderground v.1.15,2013-09-26 06:59:00,
2013-09-26 03:04:00,64.5,63.3,29.67,East,96,0.0,0.0,96,0.07,,,0.18,Wunderground v.1.15,2013-09-26 07:04:00,
2013-09-26 03:09:00,64.5,63.6,29.67,NNE,14,0.0,0.0,97,0.07,,,0.18,Wunderground v.1.15,2013-09-26 07:09:00,
2013-09-26 03:15:00,64.5,63.6,29.67,NNE,32,0.0,0.0,97,0.05,,,0.18,Wunderground v.1.15,2013-09-26 07:15:00,
2013-09-26 03:20:00,64.3,63.4,29.67,NNE,12,0.0,5.0,97,0.00,,,0.18,Wunderground v.1.15,2013-09-26 07:20:00,
2013-09-26 03:25:00,64.3,63.4,29.67,NNE,30,1.0,1.0,97,0.00,,,0.18,Wunderground v.1.15,2013-09-26 07:25:00,
2013-09-26 03:31:00,64.3,63.4,29.67,NE,52,0.0,1.0,97,0.00,,,0.18,Wunderground v.1.15,2013-09-26 07:31:00,
2013-09-26 03:37:00,64.3,63.4,29.67,NE,49,0.0,0.0,97,0.00,,,0.18,Wunderground v.1.15,2013-09-26 07:37:00,
2013-09-26 03:43:00,64.2,63.3,29.67,NE,35,0.0,0.0,97,0.00,,,0.18,Wunderground v.1.15,2013-09-26 07:43:00,
2013-09-26 03:48:00,64.2,63.3,29.67,NE,36,0.0,0.0,97,0.00,,,0.18,Wunderground v.1.15,2013-09-26 07:48:00,
2013-09-26 03:53:00,64.0,63.1,29.67,East,95,0.0,0.0,97,0.00,,,0.18,Wunderground v.1.15,2013-09-26 07:53:00,
2013-09-26 03:59:00,64.0,63.1,29.67,NE,40,0.0,2.0,97,0.00,,,0.18,Wunderground v.1.15,2013-09-26 07:59:00,
2013-09-26 04:05:00,63.9,63.0,29.67,NE,54,0.0,1.0,97,0.00,,,0.18,Wunderground v.1.15,2013-09-26 08:05:00,
2013-09-26 04:10:00,63.9,63.0,29.67,NE,53,0.0,1.0,97,0.00,,,0.18,Wunderground v.1.15,2013-09-26 08:10:00,
2013-09-26 04:15:00,63.9,63.0,29.67,ENE,65,0.0,0.0,97,0.00,,,0.18,Wunderground v.1.15,2013-09-26 08:15:00,
2013-09-26 04:21:00,63.9,63.0,29.67,ENE,57,0.0,2.0,97,0.00,,,0.19,Wunderground v.1.15,2013-09-26 08:21:00,
2013-09-26 04:26:00,63.9,63.0,29.67,ENE,57,0.0,0.0,97,0.00,,,0.19,Wunderground v.1.15,2013-09-26 08:26:00,
2013-09-26 04:32:00,63.9,63.0,29.67,East,82,0.0,2.0,97,0.00,,,0.19,Wunderground v.1.15,2013-09-26 08:32:00,
2013-09-26 04:37:00,63.9,63.0,29.67,ENE,77,0.0,1.0,97,0.00,,,0.19,Wunderground v.1.15,2013-09-26 08:37:00,
2013-09-26 04:43:00,63.7,62.8,29.67,NE,39,0.0,0.0,97,0.00,,,0.19,Wunderground v.1.15,2013-09-26 08:43:00,
2013-09-26 04:48:00,63.7,62.8,29.67,ENE,59,0.0,0.0,97,0.00,,,0.19,Wunderground v.1.15,2013-09-26 08:48:00,
2013-09-26 04:54:00,63.7,62.8,29.67,NNE,21,0.0,0.0,97,0.00,,,0.19,Wunderground v.1.15,2013-09-26 08:54:00,
2013-09-26 05:00:00,63.5,62.6,29.67,NNE,32,0.0,6.0,97,0.00,,,0.19,Wunderground v.1.15,2013-09-26 09:00:00,
2013-09-26 05:06:00,63.5,62.6,29.68,East,92,0.0,1.0,97,0.00,,,0.19,Wunderground v.1.15,2013-09-26 09:06:00,
2013-09-26 05:12:00,63.5,62.6,29.68,East,92,0.0,1.0,97,0.00,,,0.19,Wunderground v.1.15,2013-09-26 09:12:00,
2013-09-26 05:18:00,63.5,62.6,29.68,East,90,0.0,0.0,97,0.00,,,0.19,Wunderground v.1.15,2013-09-26 09:18:00,
2013-09-26 05:24:00,63.5,62.6,29.68,ESE,111,0.0,0.0,97,0.00,,,0.19,Wunderground v.1.15,2013-09-26 09:24:00,
2013-09-26 05:30:00,63.5,62.6,29.68,North,360,0.0,0.0,97,0.00,,,0.19,Wunderground v.1.15,2013-09-26 09:30:00,
2013-09-26 05:36:00,63.4,62.5,29.68,ESE,106,0.0,0.0,97,0.00,,,0.20,Wunderground v.1.15,2013-09-26 09:36:00,
2013-09-26 05:42:00,63.4,62.5,29.68,NE,48,0.0,0.0,97,0.00,,,0.20,Wunderground v.1.15,2013-09-26 09:42:00,
2013-09-26 05:48:00,63.4,62.5,29.69,NNE,28,0.0,4.0,97,0.00,,,0.20,Wunderground v.1.15,2013-09-26 09:48:00,
2013-09-26 05:54:00,63.4,62.5,29.69,NNE,28,0.0,0.0,97,0.00,,,0.21,Wunderground v.1.15,2013-09-26 09:54:00,
2013-09-26 06:00:00,63.4,62.5,29.69,ENE,59,0.0,0.0,97,0.24,,,0.23,Wunderground v.1.15,2013-09-26 10:00:00,
2013-09-26 06:06:00,63.4,62.5,29.70,NE,39,0.0,0.0,97,0.21,,,0.25,Wunderground v.1.15,2013-09-26 10:06:00,
2013-09-26 06:11:00,63.4,62.5,29.70,East,96,0.0,1.0,97,0.14,,,0.27,Wunderground v.1.15,2013-09-26 10:11:00,
2013-09-26 06:17:00,63.2,62.3,29.70,East,92,1.0,3.0,97,0.09,,,0.27,Wunderground v.1.15,2013-09-26 10:17:00,
2013-09-26 06:23:00,63.2,62.3,29.70,NE,39,1.0,1.0,97,0.08,,,0.28,Wunderground v.1.15,2013-09-26 10:23:00,
2013-09-26 06:29:00,63.1,62.2,29.70,East,99,1.0,5.0,97,0.06,,,0.28,Wunderground v.1.15,2013-09-26 10:29:00,
2013-09-26 06:35:00,63.1,62.2,29.70,East,95,2.0,2.0,97,0.04,,,0.28,Wunderground v.1.15,2013-09-26 10:35:00,
2013-09-26 06:41:00,62.9,62.0,29.70,East,94,1.0,3.0,97,0.00,,,0.28,Wunderground v.1.15,2013-09-26 10:41:00,
2013-09-26 06:46:00,62.9,62.0,29.70,ENE,75,1.0,5.0,97,0.00,,,0.28,Wunderground v.1.15,2013-09-26 10:46:00,
2013-09-26 06:52:00,62.7,61.8,29.70,ENE,75,0.0,5.0,97,0.00,,,0.28,Wunderground v.1.15,2013-09-26 10:52:00,
2013-09-26 06:58:00,62.6,61.7,29.70,ENE,75,0.0,1.0,97,0.00,,,0.28,Wunderground v.1.15,2013-09-26 10:58:00,
2013-09-26 07:04:00,62.6,61.7,29.70,ENE,75,0.0,0.0,97,0.00,,,0.28,Wunderground v.1.15,2013-09-26 11:04:00,
2013-09-26 07:09:00,62.6,61.7,29.70,ENE,76,0.0,2.0,97,0.00,,,0.28,Wunderground v.1.15,2013-09-26 11:09:00,
2013-09-26 07:14:00,62.6,61.7,29.70,ENE,76,0.0,0.0,97,0.00,,,0.28,Wunderground v.1.15,2013-09-26 11:14:00,
2013-09-26 07:20:00,62.6,61.7,29.70,East,81,0.0,0.0,97,0.00,,,0.28,Wunderground v.1.15,2013-09-26 11:20:00,
2013-09-26 07:26:00,62.6,61.7,29.70,NE,51,0.0,0.0,97,0.00,,,0.28,Wunderground v.1.15,2013-09-26 11:26:00,
2013-09-26 07:31:00,62.6,61.7,29.70,NE,51,0.0,0.0,97,0.00,,,0.29,Wunderground v.1.15,2013-09-26 11:31:00,
2013-09-26 07:36:00,62.7,61.8,29.70,ENE,59,0.0,0.0,97,0.00,,,0.29,Wunderground v.1.15,2013-09-26 11:36:00,
2013-09-26 07:42:00,62.7,61.8,29.70,ENE,67,0.0,0.0,97,0.00,,,0.29,Wunderground v.1.15,2013-09-26 11:42:00,
2013-09-26 07:47:00,62.7,61.8,29.70,East,87,0.0,1.0,97,0.00,,,0.29,Wunderground v.1.15,2013-09-26 11:47:00,
2013-09-26 07:52:00,62.7,61.8,29.70,East,87,0.0,1.0,97,0.00,,,0.29,Wunderground v.1.15,2013-09-26 11:52:00,
2013-09-26 07:58:00,62.7,61.8,29.70,East,86,0.0,4.0,97,0.00,,,0.29,Wunderground v.1.15,2013-09-26 11:58:00,
2013-09-26 08:04:00,62.7,61.8,29.71,East,80,1.0,1.0,97,0.00,,,0.29,Wunderground v.1.15,2013-09-26 12:04:00,
2013-09-26 08:09:00,62.7,61.8,29.71,East,82,0.0,1.0,97,0.00,,,0.29,Wunderground v.1.15,2013-09-26 12:09:00,
2013-09-26 08:15:00,62.7,61.8,29.71,NNE,15,1.0,1.0,97,0.00,,,0.29,Wunderground v.1.15,2013-09-26 12:15:00,
2013-09-26 08:21:00,62.9,62.0,29.72,NNE,24,1.0,2.0,97,0.00,,,0.29,Wunderground v.1.15,2013-09-26 12:21:00,
2013-09-26 08:26:00,62.9,62.0,29.72,East,88,0.0,0.0,97,0.00,,,0.29,Wunderground v.1.15,2013-09-26 12:26:00,
2013-09-26 08:31:00,62.9,62.0,29.72,ENE,67,1.0,3.0,97,0.00,,,0.29,Wunderground v.1.15,2013-09-26 12:31:00,
2013-09-26 08:37:00,62.9,62.0,29.72,ENE,78,1.0,1.0,97,0.00,,,0.29,Wunderground v.1.15,2013-09-26 12:37:00,
2013-09-26 08:42:00,62.9,62.0,29.72,ENE,71,1.0,3.0,97,0.00,,,0.29,Wunderground v.1.15,2013-09-26 12:42:00,
2013-09-26 08:48:00,63.1,62.2,29.72,East,88,1.0,1.0,97,0.00,,,0.29,Wunderground v.1.15,2013-09-26 12:48:00,
2013-09-26 08:54:00,63.2,62.3,29.72,East,85,0.0,0.0,97,0.00,,,0.29,Wunderground v.1.15,2013-09-26 12:54:00,
2013-09-26 08:59:00,63.2,62.3,29.72,NE,49,0.0,2.0,97,0.00,,,0.29,Wunderground v.1.15,2013-09-26 12:59:00,
2013-09-26 09:04:00,63.4,62.5,29.73,NE,49,0.0,0.0,97,0.00,,,0.29,Wunderground v.1.15,2013-09-26 13:04:00,
2013-09-26 09:09:00,63.4,62.2,29.73,NE,49,0.0,3.0,96,0.00,,,0.29,Wunderground v.1.15,2013-09-26 13:09:00,
2013-09-26 09:15:00,63.7,62.5,29.73,ENE,58,0.0,0.0,96,0.00,,,0.29,Wunderground v.1.15,2013-09-26 13:15:00,
2013-09-26 09:21:00,63.9,62.7,29.73,East,93,0.0,2.0,96,0.00,,,0.29,Wunderground v.1.15,2013-09-26 13:21:00,
2013-09-26 09:26:00,64.3,63.4,29.73,East,92,0.0,0.0,97,0.00,,,0.29,Wunderground v.1.15,2013-09-26 13:26:00,
2013-09-26 09:31:00,64.5,63.6,29.74,East,83,0.0,3.0,97,0.00,,,0.29,Wunderground v.1.15,2013-09-26 13:31:00,
2013-09-26 09:37:00,64.7,63.5,29.74,ENE,76,0.0,0.0,96,0.00,,,0.29,Wunderground v.1.15,2013-09-26 13:37:00,
2013-09-26 09:42:00,65.0,63.8,29.74,NE,52,1.0,3.0,96,0.00,,,0.29,Wunderground v.1.15,2013-09-26 13:42:00,
2013-09-26 09:48:00,65.3,63.5,29.74,NE,54,0.0,1.0,94,0.00,,,0.29,Wunderground v.1.15,2013-09-26 13:48:00,
2013-09-26 09:53:00,65.6,63.2,29.74,ENE,76,0.0,0.0,92,0.00,,,0.29,Wunderground v.1.15,2013-09-26 13:53:00,
2013-09-26 09:58:00,66.0,63.6,29.74,North,355,0.0,4.0,92,0.00,,,0.29,Wunderground v.1.15,2013-09-26 13:58:00,
2013-09-26 10:03:00,66.4,64.0,29.74,East,90,1.0,1.0,92,0.00,,,0.29,Wunderground v.1.15,2013-09-26 14:03:00,
2013-09-26 10:08:00,66.8,64.4,29.74,East,84,1.0,5.0,92,0.00,,,0.29,Wunderground v.1.15,2013-09-26 14:08:00,
2013-09-26 10:14:00,66.9,63.9,29.74,East,80,0.0,1.0,90,0.00,,,0.29,Wunderground v.1.15,2013-09-26 14:14:00,
2013-09-26 10:19:00,67.1,64.1,29.74,NE,34,0.0,3.0,90,0.00,,,0.29,Wunderground v.1.15,2013-09-26 14:19:00,
2013-09-26 10:24:00,67.3,63.6,29.74,NE,44,0.0,1.0,88,0.00,,,0.29,Wunderground v.1.15,2013-09-26 14:24:00,
2013-09-26 10:29:00,67.6,63.6,29.74,East,99,0.0,1.0,87,0.00,,,0.29,Wunderground v.1.15,2013-09-26 14:29:00,
2013-09-26 10:34:00,67.9,63.6,29.74,ESE,113,0.0,0.0,86,0.00,,,0.29,Wunderground v.1.15,2013-09-26 14:34:00,
2013-09-26 10:39:00,68.3,63.9,29.74,ENE,76,0.0,0.0,86,0.00,,,0.29,Wunderground v.1.15,2013-09-26 14:39:00,
2013-09-26 10:45:00,68.8,64.4,29.74,ENE,74,0.0,2.0,86,0.00,,,0.29,Wunderground v.1.15,2013-09-26 14:45:00,
2013-09-26 10:50:00,69.4,64.0,29.74,East,99,1.0,2.0,83,0.00,,,0.29,Wunderground v.1.15,2013-09-26 14:50:00,
2013-09-26 10:55:00,69.8,63.7,29.74,ESE,104,2.0,3.0,81,0.00,,,0.29,Wunderground v.1.15,2013-09-26 14:55:00,
2013-09-26 11:00:00,70.1,63.6,29.74,ESE,108,1.0,3.0,80,0.00,,,0.29,Wunderground v.1.15,2013-09-26 15:00:00,
2013-09-26 11:05:00,70.4,64.3,29.74,East,96,0.0,1.0,81,0.00,,,0.29,Wunderground v.1.15,2013-09-26 15:05:00,
2013-09-26 11:10:00,70.3,62.7,29.74,East,98,0.0,1.0,77,0.00,,,0.29,Wunderground v.1.15,2013-09-26 15:10:00,
2013-09-26 11:15:00,70.4,62.8,29.74,ESE,104,0.0,3.0,77,0.00,,,0.29,Wunderground v.1.15,2013-09-26 15:15:00,
2013-09-26 11:20:00,70.8,62.9,29.75,ESE,107,0.0,3.0,76,0.00,,,0.29,Wunderground v.1.15,2013-09-26 15:20:00,
2013-09-26 11:26:00,71.1,63.1,29.75,East,86,0.0,1.0,76,0.00,,,0.29,Wunderground v.1.15,2013-09-26 15:26:00,
2013-09-26 11:32:00,71.5,63.5,29.75,NNE,25,0.0,3.0,76,0.00,,,0.29,Wunderground v.1.15,2013-09-26 15:32:00,
2013-09-26 11:37:00,71.6,63.3,29.75,East,82,1.0,3.0,75,0.00,,,0.29,Wunderground v.1.15,2013-09-26 15:37:00,
2013-09-26 11:42:00,72.1,63.4,29.75,East,88,1.0,3.0,74,0.00,,,0.29,Wunderground v.1.15,2013-09-26 15:42:00,
2013-09-26 11:47:00,72.5,63.4,29.74,North,5,1.0,4.0,73,0.00,,,0.29,Wunderground v.1.15,2013-09-26 15:47:00,
2013-09-26 11:53:00,73.0,63.4,29.74,NE,42,1.0,7.0,72,0.00,,,0.29,Wunderground v.1.15,2013-09-26 15:53:00,
2013-09-26 11:58:00,73.3,63.7,29.74,NW,317,1.0,7.0,72,0.00,,,0.29,Wunderground v.1.15,2013-09-26 15:58:00,
2013-09-26 12:03:00,73.9,63.1,29.74,North,5,2.0,3.0,69,0.00,,,0.29,Wunderground v.1.15,2013-09-26 16:03:00,
2013-09-26 12:08:00,73.9,62.7,29.74,ESE,114,2.0,5.0,68,0.00,,,0.29,Wunderground v.1.15,2013-09-26 16:08:00,
2013-09-26 12:14:00,74.2,63.8,29.74,ENE,71,1.0,1.0,70,0.00,,,0.29,Wunderground v.1.15,2013-09-26 16:14:00,
2013-09-26 12:19:00,74.7,64.3,29.74,East,97,1.0,4.0,70,0.00,,,0.29,Wunderground v.1.15,2013-09-26 16:19:00,
2013-09-26 12:24:00,75.1,63.4,29.74,East,94,1.0,1.0,67,0.00,,,0.29,Wunderground v.1.15,2013-09-26 16:24:00,
2013-09-26 12:29:00,75.1,63.4,29.74,NNE,33,1.0,2.0,67,0.00,,,0.29,Wunderground v.1.15,2013-09-26 16:29:00,
2013-09-26 12:34:00,75.3,64.0,29.74,NNE,15,1.0,1.0,68,0.00,,,0.29,Wunderground v.1.15,2013-09-26 16:34:00,
2013-09-26 12:39:00,75.4,63.7,29.74,NE,36,1.0,4.0,67,0.00,,,0.29,Wunderground v.1.15,2013-09-26 16:39:00,
2013-09-26 12:44:00,75.6,64.7,29.74,ENE,71,1.0,1.0,69,0.00,,,0.29,Wunderground v.1.15,2013-09-26 16:44:00,
2013-09-26 12:49:00,75.6,63.4,29.74,ESE,109,1.0,1.0,66,0.00,,,0.29,Wunderground v.1.15,2013-09-26 16:49:00,
2013-09-26 12:54:00,75.3,64.8,29.74,NE,44,0.0,0.0,70,0.00,,,0.29,Wunderground v.1.15,2013-09-26 16:54:00,
2013-09-26 13:00:00,75.1,63.8,29.74,SE,128,0.0,3.0,68,0.00,,,0.29,Wunderground v.1.15,2013-09-26 17:00:00,
2013-09-26 13:05:00,74.9,64.5,29.74,NE,55,1.0,1.0,70,0.00,,,0.29,Wunderground v.1.15,2013-09-26 17:05:00,
2013-09-26 13:10:00,74.9,64.5,29.74,NE,55,0.0,1.0,70,0.00,,,0.29,Wunderground v.1.15,2013-09-26 17:10:00,
2013-09-26 13:15:00,74.7,63.9,29.74,East,100,1.0,3.0,69,0.00,,,0.29,Wunderground v.1.15,2013-09-26 17:15:00,
2013-09-26 13:20:00,74.9,63.2,29.74,North,355,1.0,3.0,67,0.00,,,0.29,Wunderground v.1.15,2013-09-26 17:20:00,
2013-09-26 13:25:00,75.6,63.9,29.74,ENE,57,1.0,2.0,67,0.00,,,0.29,Wunderground v.1.15,2013-09-26 17:25:00,
2013-09-26 13:31:00,75.8,63.6,29.73,East,79,1.0,2.0,66,0.00,,,0.29,Wunderground v.1.15,2013-09-26 17:31:00,
2013-09-26 13:36:00,76.1,63.5,29.73,NE,35,1.0,2.0,65,0.00,,,0.29,Wunderground v.1.15,2013-09-26 17:36:00,
2013-09-26 13:41:00,76.5,63.4,29.73,NE,49,1.0,2.0,64,0.00,,,0.29,Wunderground v.1.15,2013-09-26 17:41:00,
2013-09-26 13:46:00,76.8,64.6,29.73,West,281,1.0,1.0,66,0.00,,,0.29,Wunderground v.1.15,2013-09-26 17:46:00,
2013-09-26 13:51:00,77.2,63.2,29.73,East,88,1.0,3.0,62,0.00,,,0.29,Wunderground v.1.15,2013-09-26 17:51:00,
2013-09-26 13:57:00,77.6,63.5,29.73,East,83,1.0,4.0,62,0.00,,,0.29,Wunderground v.1.15,2013-09-26 17:57:00,
2013-09-26 14:02:00,77.9,63.8,29.73,East,93,1.0,4.0,62,0.00,,,0.29,Wunderground v.1.15,2013-09-26 18:02:00,
2013-09-26 14:07:00,78.1,64.0,29.73,ESE,105,1.0,1.0,62,0.00,,,0.29,Wunderground v.1.15,2013-09-26 18:07:00,
2013-09-26 14:13:00,78.1,64.9,29.73,East,96,0.0,1.0,64,0.00,,,0.29,Wunderground v.1.15,2013-09-26 18:13:00,
2013-09-26 14:18:00,77.2,63.6,29.72,East,88,1.0,1.0,63,0.00,,,0.29,Wunderground v.1.15,2013-09-26 18:18:00,
2013-09-26 14:23:00,76.5,64.3,29.72,East,88,0.0,1.0,66,0.00,,,0.29,Wunderground v.1.15,2013-09-26 18:23:00,
2013-09-26 14:28:00,75.8,64.1,29.72,ENE,68,0.0,1.0,67,0.00,,,0.29,Wunderground v.1.15,2013-09-26 18:28:00,
2013-09-26 14:34:00,75.3,63.6,29.72,NE,46,0.0,0.0,67,0.00,,,0.29,Wunderground v.1.15,2013-09-26 18:34:00,
2013-09-26 14:39:00,75.1,63.0,29.72,North,5,0.0,2.0,66,0.00,,,0.29,Wunderground v.1.15,2013-09-26 18:39:00,
2013-09-26 14:44:00,75.1,64.6,29.72,North,5,0.0,0.0,70,0.00,,,0.29,Wunderground v.1.15,2013-09-26 18:44:00,
2013-09-26 14:50:00,75.1,63.4,29.72,ENE,57,0.0,0.0,67,0.00,,,0.29,Wunderground v.1.15,2013-09-26 18:50:00,
2013-09-26 14:55:00,74.9,63.2,29.72,ENE,73,0.0,1.0,67,0.00,,,0.29,Wunderground v.1.15,2013-09-26 18:55:00,
2013-09-26 15:00:00,74.7,63.0,29.72,NE,44,1.0,4.0,67,0.00,,,0.29,Wunderground v.1.15,2013-09-26 19:00:00,
2013-09-26 15:05:00,74.6,62.5,29.72,East,99,1.0,4.0,66,0.00,,,0.29,Wunderground v.1.15,2013-09-26 19:05:00,
2013-09-26 15:12:00,75.3,62.7,29.72,East,97,1.0,6.0,65,0.00,,,0.29,Wunderground v.1.15,2013-09-26 19:12:00,
2013-09-26 15:17:00,75.8,62.8,29.72,East,96,1.0,1.0,64,0.00,,,0.29,Wunderground v.1.15,2013-09-26 19:17:00,
2013-09-26 15:22:00,75.8,62.3,29.72,NNW,347,0.0,2.0,63,0.00,,,0.29,Wunderground v.1.15,2013-09-26 19:22:00,
2013-09-26 15:28:00,75.8,62.8,29.72,NE,51,0.0,0.0,64,0.00,,,0.29,Wunderground v.1.15,2013-09-26 19:28:00,
2013-09-26 15:33:00,75.8,61.8,29.72,NE,34,0.0,1.0,62,0.00,,,0.29,Wunderground v.1.15,2013-09-26 19:33:00,
2013-09-26 15:39:00,76.3,62.3,29.72,NE,44,0.0,5.0,62,0.00,,,0.29,Wunderground v.1.15,2013-09-26 19:39:00,
2013-09-26 15:44:00,76.7,63.2,29.72,ENE,58,1.0,2.0,63,0.00,,,0.29,Wunderground v.1.15,2013-09-26 19:44:00,
2013-09-26 15:49:00,76.8,61.9,29.72,NNE,21,1.0,3.0,60,0.00,,,0.29,Wunderground v.1.15,2013-09-26 19:49:00,
2013-09-26 15:54:00,77.2,61.3,29.72,ENE,68,1.0,1.0,58,0.00,,,0.29,Wunderground v.1.15,2013-09-26 19:54:00,
2013-09-26 15:59:00,77.4,61.0,29.72,NW,318,1.0,3.0,57,0.00,,,0.29,Wunderground v.1.15,2013-09-26 19:59:00,
2013-09-26 16:05:00,77.9,61.9,29.72,East,95,1.0,3.0,58,0.00,,,0.29,Wunderground v.1.15,2013-09-26 20:05:00,
2013-09-26 16:11:00,78.5,61.0,29.72,East,88,1.0,4.0,55,0.00,,,0.29,Wunderground v.1.15,2013-09-26 20:11:00,
2013-09-26 16:16:00,79.2,61.6,29.72,NE,49,0.0,3.0,55,0.00,,,0.29,Wunderground v.1.15,2013-09-26 20:16:00,
2013-09-26 16:21:00,79.6,61.0,29.72,ENE,65,0.0,3.0,53,0.00,,,0.29,Wunderground v.1.15,2013-09-26 20:21:00,
2013-09-26 16:26:00,79.9,61.8,29.72,ENE,69,1.0,2.0,54,0.00,,,0.29,Wunderground v.1.15,2013-09-26 20:26:00,
2013-09-26 16:32:00,79.8,58.9,29.72,East,90,1.0,2.0,49,0.00,,,0.29,Wunderground v.1.15,2013-09-26 20:32:00,
2013-09-26 16:38:00,79.8,58.9,29.72,NE,51,1.0,2.0,49,0.00,,,0.29,Wunderground v.1.15,2013-09-26 20:38:00,
2013-09-26 16:44:00,79.8,59.5,29.72,ENE,68,0.0,1.0,50,0.00,,,0.29,Wunderground v.1.15,2013-09-26 20:44:00,
2013-09-26 16:49:00,79.6,58.8,29.72,East,88,1.0,5.0,49,0.00,,,0.29,Wunderground v.1.15,2013-09-26 20:49:00,
2013-09-26 16:55:00,79.8,58.9,29.72,NE,51,1.0,1.0,49,0.00,,,0.29,Wunderground v.1.15,2013-09-26 20:55:00,
2013-09-26 17:01:00,79.6,58.8,29.72,East,86,1.0,2.0,49,0.00,,,0.29,Wunderground v.1.15,2013-09-26 21:01:00,
2013-09-26 17:06:00,79.6,59.3,29.72,East,89,1.0,1.0,50,0.00,,,0.29,Wunderground v.1.15,2013-09-26 21:06:00,
2013-09-26 17:11:00,79.8,60.6,29.72,East,92,1.0,1.0,52,0.00,,,0.29,Wunderground v.1.15,2013-09-26 21:11:00,
2013-09-26 17:16:00,79.9,59.6,29.73,ESE,111,1.0,3.0,50,0.00,,,0.29,Wunderground v.1.15,2013-09-26 21:16:00,
2013-09-26 17:22:00,79.8,58.9,29.73,East,82,1.0,4.0,49,0.00,,,0.29,Wunderground v.1.15,2013-09-26 21:22:00,
2013-09-26 17:27:00,79.8,60.6,29.73,ENE,76,1.0,3.0,52,0.00,,,0.29,Wunderground v.1.15,2013-09-26 21:27:00,
2013-09-26 17:32:00,79.2,57.8,29.73,East,96,1.0,4.0,48,0.00,,,0.29,Wunderground v.1.15,2013-09-26 21:32:00,
2013-09-26 17:37:00,79.0,57.6,29.73,ENE,71,1.0,5.0,48,0.00,,,0.29,Wunderground v.1.15,2013-09-26 21:37:00,
2013-09-26 17:42:00,78.6,57.3,29.73,ENE,76,1.0,5.0,48,0.00,,,0.29,Wunderground v.1.15,2013-09-26 21:42:00,
2013-09-26 17:47:00,78.5,57.7,29.73,NE,45,1.0,3.0,49,0.00,,,0.29,Wunderground v.1.15,2013-09-26 21:47:00,
2013-09-26 17:52:00,78.1,57.9,29.73,NE,38,1.0,3.0,50,0.00,,,0.29,Wunderground v.1.15,2013-09-26 21:52:00,
2013-09-26 17:57:00,77.9,57.8,29.73,East,84,0.0,3.0,50,0.00,,,0.29,Wunderground v.1.15,2013-09-26 21:57:00,
2013-09-26 18:02:00,77.6,57.5,29.74,ENE,65,0.0,3.0,50,0.00,,,0.29,Wunderground v.1.15,2013-09-26 22:02:00,
2013-09-26 18:07:00,77.0,58.6,29.74,ENE,65,0.0,0.0,53,0.00,,,0.29,Wunderground v.1.15,2013-09-26 22:07:00,
2013-09-26 18:13:00,76.3,57.4,29.74,NNE,31,0.0,0.0,52,0.00,,,0.29,Wunderground v.1.15,2013-09-26 22:13:00,
2013-09-26 18:18:00,76.0,58.2,29.75,NNE,31,0.0,0.0,54,0.00,,,0.29,Wunderground v.1.15,2013-09-26 22:18:00,
2013-09-26 18:24:00,75.3,58.0,29.75,NE,40,0.0,0.0,55,0.00,,,0.29,Wunderground v.1.15,2013-09-26 22:24:00,
2013-09-26 18:29:00,74.9,59.1,29.75,NE,40,0.0,0.0,58,0.00,,,0.29,Wunderground v.1.15,2013-09-26 22:29:00,
2013-09-26 18:34:00,74.6,58.8,29.75,NE,40,0.0,0.0,58,0.00,,,0.29,Wunderground v.1.15,2013-09-26 22:34:00,
2013-09-26 18:40:00,73.9,59.1,29.75,NE,40,0.0,0.0,60,0.00,,,0.29,Wunderground v.1.15,2013-09-26 22:40:00,
2013-09-26 18:45:00,73.3,58.6,29.75,NE,40,0.0,0.0,60,0.00,,,0.29,Wunderground v.1.15,2013-09-26 22:45:00,
2013-09-26 18:50:00,72.8,59.0,29.75,NE,40,0.0,0.0,62,0.00,,,0.29,Wunderground v.1.15,2013-09-26 22:50:00,
2013-09-26 18:56:00,72.3,59.0,29.75,NE,40,0.0,0.0,63,0.00,,,0.29,Wunderground v.1.15,2013-09-26 22:56:00,
2013-09-26 19:02:00,71.8,58.5,29.76,NE,40,0.0,0.0,63,0.00,,,0.29,Wunderground v.1.15,2013-09-26 23:02:00,
2013-09-26 19:07:00,71.1,58.7,29.76,NE,40,0.0,0.0,65,0.00,,,0.29,Wunderground v.1.15,2013-09-26 23:07:00,
2013-09-26 19:13:00,70.3,59.2,29.76,NE,40,0.0,0.0,68,0.00,,,0.29,Wunderground v.1.15,2013-09-26 23:13:00,
2013-09-26 19:19:00,69.6,59.0,29.76,NE,40,0.0,0.0,69,0.00,,,0.29,Wunderground v.1.15,2013-09-26 23:19:00,
2013-09-26 19:24:00,69.1,59.7,29.76,NE,40,0.0,0.0,72,0.00,,,0.29,Wunderground v.1.15,2013-09-26 23:24:00,
2013-09-26 19:29:00,68.8,59.4,29.76,NE,40,0.0,0.0,72,0.00,,,0.29,Wunderground v.1.15,2013-09-26 23:29:00,
2013-09-26 19:35:00,68.3,59.7,29.76,NE,40,0.0,0.0,74,0.00,,,0.29,Wunderground v.1.15,2013-09-26 23:35:00,
2013-09-26 19:40:00,67.8,59.2,29.76,NE,40,0.0,0.0,74,0.00,,,0.29,Wunderground v.1.15,2013-09-26 23:40:00,
2013-09-26 19:45:00,67.4,59.2,29.76,NE,40,0.0,0.0,75,0.00,,,0.29,Wunderground v.1.15,2013-09-26 23:45:00,
2013-09-26 19:50:00,67.1,58.9,29.77,NE,40,0.0,0.0,75,0.00,,,0.29,Wunderground v.1.15,2013-09-26 23:50:00,
2013-09-26 19:55:00,66.8,59.0,29.77,NE,40,0.0,0.0,76,0.00,,,0.29,Wunderground v.1.15,2013-09-26 23:55:00,
2013-09-26 20:01:00,66.4,58.6,29.77,NE,40,0.0,0.0,76,0.00,,,0.29,Wunderground v.1.15,2013-09-27 00:01:00,
2013-09-26 20:07:00,66.1,59.0,29.77,NE,40,0.0,0.0,78,0.00,,,0.29,Wunderground v.1.15,2013-09-27 00:07:00,
2013-09-26 20:12:00,65.8,58.4,29.77,NE,40,0.0,0.0,77,0.00,,,0.29,Wunderground v.1.15,2013-09-27 00:12:00,
2013-09-26 20:17:00,65.6,58.9,29.78,NE,40,0.0,0.0,79,0.00,,,0.29,Wunderground v.1.15,2013-09-27 00:17:00,
2013-09-26 20:23:00,65.5,59.2,29.78,NE,40,0.0,0.0,80,0.00,,,0.29,Wunderground v.1.15,2013-09-27 00:23:00,
2013-09-26 20:29:00,65.3,59.0,29.78,NE,40,0.0,0.0,80,0.00,,,0.29,Wunderground v.1.15,2013-09-27 00:29:00,
2013-09-26 20:35:00,65.0,58.3,29.78,NE,40,0.0,0.0,79,0.00,,,0.29,Wunderground v.1.15,2013-09-27 00:35:00,
2013-09-26 20:40:00,64.8,58.5,29.78,NE,40,0.0,0.0,80,0.00,,,0.29,Wunderground v.1.15,2013-09-27 00:40:00,
2013-09-26 20:45:00,64.8,58.8,29.78,NE,40,0.0,0.0,81,0.00,,,0.29,Wunderground v.1.15,2013-09-27 00:45:00,
2013-09-26 20:51:00,64.7,58.7,29.78,NE,40,0.0,0.0,81,0.00,,,0.29,Wunderground v.1.15,2013-09-27 00:51:00,
2013-09-26 20:56:00,64.7,59.1,29.78,NE,40,0.0,0.0,82,0.00,,,0.29,Wunderground v.1.15,2013-09-27 00:56:00,
2013-09-26 21:01:00,64.5,58.5,29.78,NE,40,0.0,0.0,81,0.00,,,0.29,Wunderground v.1.15,2013-09-27 01:01:00,
2013-09-26 21:06:00,64.5,58.9,29.79,NE,40,0.0,0.0,82,0.00,,,0.29,Wunderground v.1.15,2013-09-27 01:06:00,
2013-09-26 21:11:00,64.3,58.7,29.79,NE,40,0.0,0.0,82,0.00,,,0.29,Wunderground v.1.15,2013-09-27 01:11:00,
2013-09-26 21:16:00,64.3,59.0,29.79,NE,40,0.0,0.0,83,0.00,,,0.29,Wunderground v.1.15,2013-09-27 01:16:00,
2013-09-26 21:21:00,64.2,58.9,29.79,NE,40,0.0,0.0,83,0.00,,,0.29,Wunderground v.1.15,2013-09-27 01:21:00,
2013-09-26 21:27:00,64.0,58.7,29.79,NE,40,0.0,0.0,83,0.00,,,0.29,Wunderground v.1.15,2013-09-27 01:27:00,
2013-09-26 21:32:00,63.9,58.6,29.79,NE,40,0.0,0.0,83,0.00,,,0.29,Wunderground v.1.15,2013-09-27 01:32:00,
2013-09-26 21:37:00,63.7,58.4,29.79,NE,40,0.0,0.0,83,0.00,,,0.29,Wunderground v.1.15,2013-09-27 01:37:00,
2013-09-26 21:43:00,63.5,58.2,29.79,NE,40,0.0,0.0,83,0.00,,,0.29,Wunderground v.1.15,2013-09-27 01:43:00,
2013-09-26 21:48:00,63.5,58.2,29.79,NE,40,0.0,0.0,83,0.00,,,0.29,Wunderground v.1.15,2013-09-27 01:48:00,
2013-09-26 21:53:00,63.4,58.5,29.79,NE,40,0.0,0.0,84,0.00,,,0.29,Wunderground v.1.15,2013-09-27 01:53:00,
2013-09-26 21:58:00,63.4,58.5,29.79,NE,40,0.0,0.0,84,0.00,,,0.29,Wunderground v.1.15,2013-09-27 01:58:00,
2013-09-26 22:03:00,63.2,58.3,29.80,NE,40,0.0,0.0,84,0.00,,,0.29,Wunderground v.1.15,2013-09-27 02:03:00,
2013-09-26 22:08:00,63.1,58.5,29.80,NE,40,0.0,0.0,85,0.00,,,0.29,Wunderground v.1.15,2013-09-27 02:08:00,
2013-09-26 22:14:00,62.9,58.3,29.80,NE,40,0.0,0.0,85,0.00,,,0.29,Wunderground v.1.15,2013-09-27 02:14:00,
2013-09-26 22:20:00,62.9,58.3,29.80,NE,40,0.0,0.0,85,0.00,,,0.29,Wunderground v.1.15,2013-09-27 02:20:00,
2013-09-26 22:25:00,62.7,58.1,29.80,NE,40,0.0,0.0,85,0.00,,,0.29,Wunderground v.1.15,2013-09-27 02:25:00,
2013-09-26 22:30:00,62.6,58.4,29.80,NE,40,0.0,0.0,86,0.00,,,0.29,Wunderground v.1.15,2013-09-27 02:30:00,
2013-09-26 22:35:00,62.6,58.4,29.80,NE,40,0.0,0.0,86,0.00,,,0.29,Wunderground v.1.15,2013-09-27 02:35:00,
2013-09-26 22:40:00,62.4,57.8,29.80,NE,40,0.0,0.0,85,0.00,,,0.29,Wunderground v.1.15,2013-09-27 02:40:00,
2013-09-26 22:45:00,62.3,58.1,29.80,NE,40,0.0,0.0,86,0.00,,,0.29,Wunderground v.1.15,2013-09-27 02:45:00,
2013-09-26 22:50:00,62.3,58.1,29.80,NE,40,0.0,0.0,86,0.00,,,0.29,Wunderground v.1.15,2013-09-27 02:50:00,
2013-09-26 22:55:00,62.1,57.5,29.80,NE,40,0.0,0.0,85,0.00,,,0.29,Wunderground v.1.15,2013-09-27 02:55:00,
2013-09-26 23:00:00,62.1,57.5,29.80,NE,40,0.0,0.0,85,0.00,,,0.29,Wunderground v.1.15,2013-09-27 03:00:00,
2013-09-26 23:05:00,62.0,57.4,29.80,NE,40,0.0,0.0,85,0.00,,,0.29,Wunderground v.1.15,2013-09-27 03:05:00,
2013-09-26 23:10:00,62.0,57.4,29.80,NE,40,0.0,0.0,85,0.00,,,0.29,Wunderground v.1.15,2013-09-27 03:10:00,
2013-09-26 23:15:00,62.0,57.4,29.80,NE,40,0.0,0.0,85,0.00,,,0.29,Wunderground v.1.15,2013-09-27 03:15:00,
2013-09-26 23:21:00,62.0,57.4,29.80,NE,40,0.0,0.0,85,0.00,,,0.29,Wunderground v.1.15,2013-09-27 03:21:00,
2013-09-26 23:26:00,62.0,57.4,29.80,NE,40,0.0,0.0,85,0.00,,,0.29,Wunderground v.1.15,2013-09-27 03:26:00,
2013-09-26 23:31:00,62.0,57.4,29.81,NE,40,0.0,0.0,85,0.00,,,0.29,Wunderground v.1.15,2013-09-27 03:31:00,
2013-09-26 23:37:00,61.8,57.6,29.81,NE,40,0.0,0.0,86,0.00,,,0.29,Wunderground v.1.15,2013-09-27 03:37:00,
2013-09-26 23:43:00,61.8,57.2,29.81,NE,40,0.0,0.0,85,0.00,,,0.29,Wunderground v.1.15,2013-09-27 03:43:00,
2013-09-26 23:48:00,61.6,57.0,29.81,NE,40,0.0,0.0,85,0.00,,,0.29,Wunderground v.1.15,2013-09-27 03:48:00,
2013-09-26 23:54:00,61.6,57.0,29.81,NE,40,0.0,0.0,85,0.00,,,0.29,Wunderground v.1.15,2013-09-27 03:54:00,
2013-09-26 23:59:00,61.6,57.4,29.81,NE,40,0.0,0.0,86,0.00,,,0.29,Wunderground v.1.15,2013-09-27 03:59:00,